Showing default

ASNARO, 40298

Orbit data source: Space-Track

ASNARO, 40298 is a payload satellite owned by J-spacesystems (JP) in SSO that was launched on Thu, 06 Nov 2014 UTC via a DNEPR launch vehicle from the Orenburg, Russia (OREN). Payload-class satellites include a variety of spacecraft equipped with specific instruments for various scientific and technological missions. These include communications satellites like Starlink; space stations such as the ISS; scientific satellites like the Hubble; Earth observation satellites from companies like Planet Labs, Umbra, and HawkEye 360; GPS; miniature CubeSats for education and research; and military/defense satellites.

Loading next visibility...
Identifier
40298, 2014-070A
Orbit
SSO
Country
Flag of JPJP / JPN
Related business
Manufacturer
NEC Toshiba/Fuchu
Mission
Operational Civil Imaging
Bus & Motor
NEXTAR-300L, AOCS?
Mass
495 kg wet, 450 kg dry
Launch date (UTC)
2014-11-06 (11 years ago)
Launch vehicle
DNEPR
Launch site
Orenburg, Russia (OREN)
Object type
Payload
Rocket body
Debris
Shape & HBR
Cyl + 2 Pan, 1.8 m
Radar Cross Section
9.327 m², Large (>1 m²)

Expand to show TLE details & history
Last TLE update: 12 hours ago

TLE from 12 hours ago
0 ASNARO
1 40298U 14070A   26034.61483971  .00016472  00000-0  77949-3 0  9998
2 40298  97.3579 114.2546 0004323 251.1175 108.9591 15.19423465623725
Epoch: 2026-02-03T14:45Z
TLE epoch observation values (Epoch: 2026-02-03T14:45:22.150Z)
Latitude
-0.00009°
Longitude
119.11908°
Altitude
511.641 km
Speed
7.607 km/s
True Right ascension
07h 37m 01s
True Declination
0° 00' 00"
Sunlit
Object was in full shadow at epoch
Visualization orbit readout
Latitude
Unknown
Longitude
Unknown
Altitude
Unknown
Speed
Unknown
Apparent Right ascension
Unknown
Apparent Declination
Unknown
Sunlit
N/A
Visualization observer readout
Local Sidereal Time
04:47:10
Azimuth
Unknown
Elevation
Unknown
Doppler factor
Unknown
Orbital elements
Apogee altitude
507.522 km
Perigee altitude
501.571 km
Semi-major axis
6,882.683 km
Eccentricity
0.00043
Inclination
97.3579°
RAAN
114.2546°
Arg. of periapsis
251.1175°
True anomaly
109.00594°
Mean anomaly
108.9591°
Eccentric anomaly
108.98252°
Mean motion
3.80108 °/min
Orbital period
94.71 mins
BSTAR
0.00077949
Loading maneuver chart data...
Computing Atmospheric mass density...
Loading historical data...
Loading historical data...
Loading historical data...
Loading historical data...
Loading historical data...
Loading historical data...
Loading historical data...

Documentation

Showing up to 5 results
|